Theta_e
325 323 323 323 325 328 343 350 354 352 348 348 348 347 345 344 346 341 340 340 340 341 342 344 344 345 345 343 346 345 345 343 342 346 345 344 345 346 346 345 342 340 341 343
322 322 323 324 327 330 347 351 353 351 348 347 348 348 347 345 344 345 340 339 340 341 341 344 346 346 344 344 344 347 345 344 341 346 343 345 345 346 346 346 344 343 341 342
320 322 324 323 323 329 347 352 350 352 348 345 346 348 347 344 343 344 343 342 341 341 341 344 347 345 346 344 344 343 344 344 342 341 340 343 344 346 346 347 345 345 339 346
320 321 323 322 323 325 347 349 348 350 347 351 346 354 349 346 344 342 341 344 343 341 341 344 345 347 346 344 344 343 347 342 343 339 343 343 342 343 345 347 344 344 342 347
318 320 321 323 323 324 349 340 350 349 348 348 348 352 350 346 347 345 340 344 344 342 343 343 346 348 347 345 346 342 344 343 344 345 343 344 345 345 343 347 346 345 344 343
321 323 321 323 325 331 344 347 347 347 346 350 348 350 353 347 347 345 340 342 345 343 344 344 343 347 346 345 346 346 343 344 343 348 347 346 347 348 347 346 349 347 345 344
322 320 321 324 327 331 345 343 347 349 351 348 344 346 347 346 344 344 339 340 345 344 344 344 344 344 346 349 347 347 344 341 343 344 346 343 348 349 349 346 348 347 345 345
320 319 321 327 326 326 331 339 343 352 353 354 346 352 348 346 348 345 339 340 343 345 344 345 346 345 347 347 347 346 346 339 342 345 346 346 346 347 342 345 348 348 349 345
325 324 323 326 326 326 327 336 335 341 348 348 352 350 351 350 349 346 343 341 345 346 344 344 344 343 348 347 348 348 347 338 339 344 344 346 348 345 345 346 349 349 349 348
324 326 327 327 327 327 328 330 332 329 348 354 351 352 353 353 347 344 342 342 344 344 344 344 345 342 347 349 349 348 347 340 333 341 347 346 347 350 350 348 349 348 349 349
325 325 325 327 327 326 326 327 328 326 332 340 347 349 350 348 347 344 343 343 342 344 345 344 344 346 347 349 350 349 348 345 339 334 344 346 344 346 349 349 347 350 348 348
326 325 325 326 328 326 325 325 326 327 329 332 340 345 348 346 337 337 340 343 344 345 345 345 346 346 345 347 351 349 348 347 342 342 346 344 341 343 343 345 348 344 349 349
325 326 326 325 326 327 325 324 324 322 322 325 335 345 341 345 340 338 340 340 343 348 347 347 347 346 346 347 347 350 351 347 342 349 350 347 347 348 349 345 343 348 346 344
326 323 325 329 328 328 330 329 324 323 322 323 328 341 341 340 341 340 341 344 347 349 346 347 349 348 345 343 347 349 351 347 345 348 348 348 347 348 347 348 349 347 349 347
327 325 326 331 328 329 329 330 331 323 323 325 340 347 346 346 339 335 334 342 347 348 346 349 348 347 346 346 345 348 348 341 340 341 347 346 343 340 348 349 348 349 349 346
326 329 333 333 332 331 331 334 337 337 346 343 347 344 339 342 336 333 337 339 343 348 343 344 347 346 345 341 339 339 344 341 346 338 343 347 346 337 337 342 348 347 350 348
328 332 332 335 334 333 334 334 337 338 346 347 349 338 336 335 333 329 332 331 346 351 350 345 343 344 344 341 340 342 344 344 346 346 346 344 343 343 344 339 343 344 345 347
325 332 330 332 334 335 334 331 331 336 339 340 341 337 335 340 335 333 339 344 345 347 350 350 347 345 345 341 338 344 344 344 342 341 340 341 343 344 344 344 345 344 343 342
325 326 330 333 335 335 333 333 330 329 336 338 340 337 346 344 341 342 342 342 343 344 345 344 347 348 347 347 347 344 342 343 343 342 342 341 340 341 341 341 341 341 340 341
325 325 328 330 331 336 334 331 328 328 335 336 338 338 340 340 342 341 339 339 339 341 342 345 345 346 346 345 344 344 343 343 344 343 341 341 340 340 340 341 340 340 340 340
328 328 327 330 333 335 330 328 328 335 335 338 332 329 332 338 340 339 338 336 335 336 338 340 341 342 343 343 343 343 342 344 344 342 341 340 339 339 339 338 336 336 340 340
329 329 331 331 332 334 325 328 334 332 331 335 334 336 334 336 338 338 337 335 334 336 335 335 337 337 337 337 337 340 341 340 339 339 339 339 338 338 338 337 336 337 339 339
324 326 329 329 331 329 326 327 328 329 329 330 337 337 337 338 338 337 334 333 333 333 333 332 334 335 335 335 334 336 337 336 336 337 338 339 337 336 337 338 338 337 336 335
326 324 323 329 328 327 325 325 325 325 327 328 336 336 335 336 335 334 333 331 328 328 330 329 328 328 326 327 329 331 331 332 333 334 334 333 333 331 333 335 335 336 337 336
325 325 323 328 328 326 325 324 324 324 325 327 331 335 333 334 334 333 332 330 328 327 325 325 323 319 317 315 315 315 316 318 321 325 327 329 329 328 327 328 329 329 332 332
324 323 324 329 328 328 325 323 322 322 323 324 330 334 335 331 332 331 331 329 327 324 322 320 318 317 316 314 312 312 313 314 313 313 315 317 316 316 317 323 325 325 326 327
Wind_Speed
8 2 7 11 12 16 7 7 13 9 7 5 2 2 10 13 10 24 24 27 29 28 26 27 25 23 21 23 20 19 18 17 20 17 19 21 16 18 15 11 8 9 11 18
2 10 11 15 15 15 14 10 11 8 15 3 5 6 10 15 10 12 19 26 29 29 31 29 30 24 22 22 22 21 16 19 19 20 22 20 14 14 17 11 9 8 9 14
9 12 18 15 12 14 15 16 11 10 11 6 10 3 7 11 15 21 18 13 31 37 35 33 32 25 22 25 25 21 19 18 18 18 23 24 18 15 16 13 9 10 11 13
9 17 14 11 10 8 3 13 14 21 9 4 8 2 6 10 15 12 18 14 11 38 36 35 32 30 26 22 21 19 20 17 17 17 22 23 23 19 17 12 7 9 10 13
11 10 9 9 9 13 8 24 17 20 6 9 4 1 4 11 18 20 20 15 16 35 34 37 33 32 28 23 22 18 18 17 20 18 20 16 17 13 21 16 14 11 12 11
9 19 7 8 7 4 19 17 9 4 4 3 10 4 7 12 27 21 23 20 18 33 31 37 31 28 27 24 21 21 19 21 21 19 18 19 16 15 16 16 17 16 13 14
8 10 9 12 4 11 19 12 2 1 3 4 4 8 15 13 18 26 26 24 24 28 27 33 34 33 32 30 27 26 21 21 23 21 19 21 19 14 19 20 14 12 14 16
6 6 7 3 5 7 11 10 5 5 2 5 7 6 7 16 22 32 36 27 32 33 36 36 36 33 36 33 35 27 22 20 22 23 24 20 17 14 16 14 15 10 12 10
4 6 6 10 9 8 9 6 15 8 4 4 6 4 14 8 12 23 29 29 31 29 37 33 39 39 32 37 40 28 22 19 22 22 21 18 16 14 14 12 14 15 11 12
7 4 8 6 11 12 7 5 2 3 8 4 7 6 3 10 5 4 17 28 29 30 33 31 44 38 32 42 39 31 23 18 17 20 21 20 17 15 13 14 14 13 11 10
7 4 11 9 5 7 5 5 3 1 3 3 3 4 7 16 4 3 11 15 27 29 32 32 45 43 39 35 38 33 25 20 19 19 18 17 16 19 15 15 16 14 15 15
8 3 5 8 9 11 8 8 7 5 8 2 5 5 8 16 13 10 25 30 32 35 36 40 41 46 38 27 34 33 28 20 17 19 15 12 14 14 12 13 12 15 15 16
6 5 5 10 7 6 5 8 6 4 2 5 3 4 12 14 16 22 29 34 40 30 32 37 37 39 46 34 31 31 30 22 21 20 18 15 13 14 10 8 12 11 11 13
9 4 4 1 7 10 8 12 9 5 2 5 4 5 10 9 10 7 17 25 30 37 43 39 43 44 41 38 31 29 26 23 21 22 21 20 17 15 12 12 11 14 12 11
3 6 5 8 10 9 7 14 14 8 9 5 6 6 9 9 7 5 17 24 23 27 38 39 41 39 43 37 24 22 22 18 21 24 24 26 23 20 21 16 17 16 15 14
5 4 6 5 12 10 6 13 21 15 14 9 12 7 2 13 6 17 14 33 29 27 29 31 34 37 39 30 18 22 16 22 27 25 19 19 29 18 21 25 19 17 20 16
3 3 5 0 8 10 4 14 18 12 16 5 5 5 7 7 12 17 24 18 9 20 22 25 25 28 28 22 26 28 23 26 27 19 17 17 15 14 22 29 24 20 18 18
3 1 2 2 6 2 1 13 9 14 13 14 13 11 11 17 17 14 8 6 5 7 19 23 24 29 25 28 31 26 21 21 20 18 14 11 13 15 16 17 17 18 17 19
17 3 3 2 1 1 4 5 6 7 6 7 7 8 18 18 20 20 11 11 9 6 8 9 21 25 30 28 26 21 19 18 16 14 10 12 15 15 15 16 17 18 15 14
11 13 2 5 4 1 3 10 13 8 5 6 9 9 10 10 5 3 13 9 8 6 9 11 16 23 25 22 21 17 14 15 14 13 14 13 11 10 9 9 11 11 12 14
4 4 7 8 3 3 5 13 15 3 4 15 16 16 11 5 8 10 10 8 8 8 8 8 9 11 12 13 14 16 17 17 20 17 14 11 9 8 8 9 7 5 6 9
1 2 3 3 4 2 4 9 1 3 14 14 16 12 12 12 17 14 10 8 8 10 9 8 9 9 8 9 11 17 18 15 13 15 13 12 10 8 8 9 9 7 5 5
1 5 5 6 5 7 15 13 15 13 12 7 10 17 20 19 16 13 11 8 7 10 12 10 9 9 9 9 9 11 11 12 14 19 21 20 17 15 14 12 9 9 8 5
2 5 4 5 10 9 14 15 16 14 12 12 15 20 18 22 18 16 15 15 15 13 12 10 11 12 13 11 11 9 11 11 12 13 12 13 14 14 14 14 15 13 11 9
7 11 7 3 7 7 16 15 13 10 11 13 12 16 17 21 19 20 19 19 16 15 13 11 11 11 11 10 10 9 10 10 11 10 10 10 9 8 10 11 10 11 13 11
1 3 2 3 14 7 13 11 7 8 10 9 12 14 14 14 15 14 14 13 14 14 13 12 12 13 13 12 12 12 10 10 10 11 11 9 8 4 5 7 8 8 8 10
Wind_Direction
181 155 216 237 241 256 102 93 102 123 121 102 67 294 275 319 344 166 188 167 163 160 161 163 169 164 164 164 168 164 168 165 174 171 159 161 155 172 174 161 148 162 146 146
225 225 232 235 244 244 78 111 117 128 153 108 133 272 313 308 296 297 194 176 171 166 164 164 167 173 172 173 180 172 189 188 181 191 174 168 159 166 191 184 177 173 171 145
218 244 219 237 251 252 134 165 202 148 138 95 130 300 265 294 271 274 272 200 181 171 168 168 169 180 171 177 185 193 188 194 187 180 175 176 170 162 173 180 180 182 175 153
236 258 246 218 252 245 123 11 181 145 138 149 238 158 209 247 259 250 255 232 187 171 172 173 176 179 173 173 182 193 194 190 171 180 181 180 182 193 189 186 182 180 169 167
251 251 264 266 217 253 135 107 218 162 121 110 237 114 231 219 248 235 228 202 178 171 171 171 170 178 175 180 184 181 188 193 181 185 179 197 183 199 196 187 185 190 191 192
248 279 250 258 240 86 145 132 115 64 87 134 177 183 235 206 221 222 219 192 193 178 171 178 181 171 181 186 184 176 182 191 187 190 184 172 189 182 196 190 194 203 202 194
277 265 277 240 286 140 120 136 120 38 56 247 186 160 240 232 216 211 210 189 191 196 188 187 181 189 183 187 189 190 182 189 190 186 190 186 197 199 199 196 197 213 198 201
225 286 262 282 217 221 174 168 224 131 88 327 143 211 262 296 215 203 207 195 199 203 195 190 188 185 191 191 199 193 187 189 186 184 186 191 198 201 207 185 188 211 219 191
327 253 241 213 214 224 263 186 228 102 50 66 298 320 311 7 148 178 191 195 202 202 194 195 197 189 192 194 197 194 191 188 189 190 186 191 188 184 182 188 200 205 222 214
277 305 285 278 206 233 195 255 238 284 151 172 195 181 220 18 17 130 185 189 205 206 204 206 209 197 199 191 194 196 193 188 193 193 189 190 194 195 188 185 207 200 198 195
332 352 287 342 165 195 286 294 309 195 212 196 117 273 184 143 159 3 302 260 223 218 218 208 202 196 193 189 192 192 189 189 189 193 194 204 205 204 206 205 208 212 209 212
356 271 305 275 294 180 206 228 222 137 284 234 166 219 163 153 153 152 228 247 244 235 221 210 193 192 201 190 186 193 190 183 187 191 190 207 209 211 215 224 211 221 221 227
342 336 343 328 337 2 208 255 260 243 285 264 195 244 127 186 163 200 215 231 245 171 175 177 184 184 192 190 187 190 185 169 170 189 201 201 199 203 208 224 223 218 222 234
352 258 223 200 257 289 311 325 260 254 245 258 277 168 154 166 159 225 288 257 218 158 167 172 174 183 186 188 184 191 183 175 175 194 195 200 199 197 215 233 234 242 230 230
335 264 286 337 253 304 291 302 319 259 252 221 173 113 101 129 146 161 57 18 254 149 151 161 168 176 182 184 183 198 199 218 202 222 203 191 186 228 205 214 224 232 243 243
293 283 27 344 359 306 314 8 17 4 6 35 92 80 168 167 98 40 23 347 304 134 152 166 166 173 174 182 190 210 221 212 221 234 204 215 228 207 256 213 216 221 222 235
270 49 23 126 337 321 67 360 39 42 24 35 55 65 125 71 71 69 75 291 56 127 143 182 178 173 185 194 210 191 205 199 208 209 215 225 236 218 208 208 228 229 240 230
255 74 50 290 344 215 167 19 41 59 46 42 66 58 69 88 96 105 82 104 41 127 149 160 162 163 165 185 192 193 192 183 183 195 196 202 208 205 205 208 215 218 229 233
334 176 131 130 304 218 4 21 360 23 7 69 80 62 98 95 84 64 66 50 80 100 135 176 177 169 171 181 188 200 206 206 208 204 210 206 212 215 219 224 229 228 233 236
354 37 59 137 103 171 279 310 334 341 15 61 101 79 95 61 60 95 88 72 83 115 114 145 140 163 187 190 193 190 201 203 194 186 175 180 194 212 214 221 224 231 231 235
329 15 344 278 137 180 239 281 318 47 221 90 111 109 92 95 122 132 131 91 78 108 132 141 148 166 165 171 184 184 200 199 184 183 176 183 196 210 205 193 186 179 196 194
114 91 225 25 38 88 284 300 88 208 77 122 136 119 108 115 118 136 123 84 84 105 101 112 126 134 143 160 180 179 186 188 193 192 190 179 178 172 168 181 188 191 205 212
75 168 141 113 273 264 83 80 77 83 57 63 145 143 145 148 144 136 112 109 122 111 111 113 120 132 130 140 153 160 157 162 167 172 167 178 181 181 170 160 152 145 134 131
255 153 120 129 232 228 107 85 74 71 49 46 126 144 149 149 156 153 143 145 139 141 143 152 148 140 133 133 136 145 149 162 175 182 175 176 181 181 178 175 167 166 167 175
190 158 166 204 216 142 104 93 87 73 57 48 57 145 139 148 155 161 160 157 157 157 154 162 161 146 143 145 145 144 141 142 143 145 152 175 177 168 172 172 176 177 182 186
326 176 113 211 168 160 117 102 77 68 69 50 68 118 122 126 143 162 162 161 156 159 160 156 152 148 142 146 149 148 149 135 130 130 131 129 126 106 205 223 212 204 204 214